Stations météo

réclame
Mon MeteoGroup
Falsterbo, Suède (2616): Température de l'air & dewpoint: 12.06.2018 15:00:00 - 18.06.2018 15:00:00 (CEST)Falsterbo, Suède (2616): Vitesse du vent: 12.06.2018 15:00:00 - 18.06.2018 15:00:00 (CEST)Falsterbo, Suède (2616): Direction du vent: 12.06.2018 15:00:00 - 18.06.2018 15:00:00 (CEST)Falsterbo, Suède (2616): reduced air pressure: 12.06.2018 15:00:00 - 18.06.2018 15:00:00 (CEST)Falsterbo, Suède (2616): visibility: 12.06.2018 15:00:00 - 18.06.2018 15:00:00 (CEST)
Date & Time tt [°C] td [°C] ff [km/h] ff [knt] dd ppp [hPa] vv [km]
18.06.2018 15:00:00 - - - - - - -
18.06.2018 14:00:00 20,4 12,9 25 14 SSW 1017,5 25
18.06.2018 13:00:00 - - - - - - -
18.06.2018 12:00:00 - - - - - - -
18.06.2018 11:00:00 19,5 11,8 22 12 SW 1017,9 35
18.06.2018 10:00:00 - - - - - - -
18.06.2018 09:00:00 - - - - - - -
18.06.2018 08:00:00 16,5 11,8 14 8 WSW 1017,4 23
18.06.2018 07:00:00 - - - - - - -
18.06.2018 06:00:00 - - - - - - -
18.06.2018 05:00:00 - - - - - - -
18.06.2018 04:00:00 - - - - - - -
18.06.2018 03:00:00 - - - - - - -
18.06.2018 02:00:00 - - - - - - -
18.06.2018 01:00:00 - - - - - - -
18.06.2018 00:00:00 - - - - - - -
17.06.2018 23:00:00 - - - - - - -
17.06.2018 22:00:00 - - - - - - -
17.06.2018 21:00:00 - - - - - - -
17.06.2018 20:00:00 18,8 10,1 29 16 W 1014,7 35
17.06.2018 19:00:00 - - - - - - -
17.06.2018 18:00:00 - - - - - - -
17.06.2018 17:00:00 19,0 13,2 29 16 WNW 1014,2 35
17.06.2018 16:00:00 - - - - - - -
17.06.2018 15:00:00 - - - - - - -
17.06.2018 14:00:00 20,8 13,3 29 16 WSW 1013,2 23
17.06.2018 13:00:00 - - - - - - -
17.06.2018 12:00:00 - - - - - - -
17.06.2018 11:00:00 17,5 14,9 18 10 W 1012,6 20
17.06.2018 10:00:00 - - - - - - -
17.06.2018 09:00:00 - - - - - - -
17.06.2018 08:00:00 16,3 14,5 11 6 W 1012,5 5
17.06.2018 07:00:00 - - - - - - -
17.06.2018 06:00:00 - - - - - - -
17.06.2018 05:00:00 - - - - - - -
17.06.2018 04:00:00 - - - - - - -
17.06.2018 03:00:00 - - - - - - -
17.06.2018 02:00:00 - - - - - - -
17.06.2018 01:00:00 - - - - - - -
17.06.2018 00:00:00 - - - - - - -
16.06.2018 23:00:00 - - - - - - -
16.06.2018 22:00:00 - - - - - - -
16.06.2018 21:00:00 - - - - - - -
16.06.2018 20:00:00 18,0 13,3 29 16 ESE 1014,7 22
16.06.2018 19:00:00 - - - - - - -
16.06.2018 18:00:00 - - - - - - -
16.06.2018 17:00:00 19,4 12,9 29 16 ESE 1016,0 27
16.06.2018 16:00:00 - - - - - - -
16.06.2018 15:00:00 - - - - - - -
16.06.2018 14:00:00 19,7 11,7 25 14 SE 1017,5 40
16.06.2018 13:00:00 - - - - - - -
16.06.2018 12:00:00 - - - - - - -
16.06.2018 11:00:00 18,0 12,0 14 8 ESE 1018,1 40
16.06.2018 10:00:00 - - - - - - -
16.06.2018 09:00:00 - - - - - - -
16.06.2018 08:00:00 18,6 11,2 11 6 WSW 1018,2 35
16.06.2018 07:00:00 - - - - - - -
16.06.2018 06:00:00 - - - - - - -
16.06.2018 05:00:00 - - - - - - -
16.06.2018 04:00:00 - - - - - - -
16.06.2018 03:00:00 - - - - - - -
16.06.2018 02:00:00 - - - - - - -
16.06.2018 01:00:00 - - - - - - -
16.06.2018 00:00:00 - - - - - - -
15.06.2018 23:00:00 - - - - - - -
15.06.2018 22:00:00 - - - - - - -
15.06.2018 21:00:00 - - - - - - -
15.06.2018 20:00:00 19,2 8,2 7 4 SW 1017,3 40
15.06.2018 19:00:00 - - - - - - -
15.06.2018 18:00:00 - - - - - - -
15.06.2018 17:00:00 22,0 8,5 11 6 SSW 1017,3 40
15.06.2018 16:00:00 - - - - - - -
15.06.2018 15:00:00 - - - - - - -
15.06.2018 14:00:00 20,6 9,5 11 6 SW 1017,1 35
15.06.2018 13:00:00 - - - - - - -
15.06.2018 12:00:00 - - - - - - -
15.06.2018 11:00:00 18,7 10,5 18 10 WNW 1016,4 27
15.06.2018 10:00:00 - - - - - - -
15.06.2018 09:00:00 - - - - - - -
15.06.2018 08:00:00 15,9 12,3 22 12 W 1015,1 18
15.06.2018 07:00:00 - - - - - - -
15.06.2018 06:00:00 - - - - - - -
15.06.2018 05:00:00 - - - - - - -
15.06.2018 04:00:00 - - - - - - -
15.06.2018 03:00:00 - - - - - - -
15.06.2018 02:00:00 - - - - - - -
15.06.2018 01:00:00 - - - - - - -
15.06.2018 00:00:00 - - - - - - -
14.06.2018 23:00:00 - - - - - - -
14.06.2018 22:00:00 - - - - - - -
14.06.2018 21:00:00 - - - - - - -
14.06.2018 20:00:00 18,2 12,4 29 16 SSW 1011,7 30
14.06.2018 19:00:00 - - - - - - -
14.06.2018 18:00:00 - - - - - - -
14.06.2018 17:00:00 20,9 12,1 36 19 SSW 1012,0 35
14.06.2018 16:00:00 - - - - - - -
14.06.2018 15:00:00 - - - - - - -
14.06.2018 14:00:00 21,2 11,8 32 18 SSW 1013,0 40
14.06.2018 13:00:00 - - - - - - -
14.06.2018 12:00:00 - - - - - - -
14.06.2018 11:00:00 18,3 9,9 25 14 SSW 1013,7 40
14.06.2018 10:00:00 - - - - - - -
14.06.2018 09:00:00 - - - - - - -
14.06.2018 08:00:00 14,9 6,2 14 8 W 1013,6 60
14.06.2018 07:00:00 - - - - - - -
14.06.2018 06:00:00 - - - - - - -
14.06.2018 05:00:00 - - - - - - -
14.06.2018 04:00:00 - - - - - - -
14.06.2018 03:00:00 - - - - - - -
14.06.2018 02:00:00 - - - - - - -
14.06.2018 01:00:00 - - - - - - -
14.06.2018 00:00:00 - - - - - - -
13.06.2018 23:00:00 - - - - - - -
13.06.2018 22:00:00 - - - - - - -
13.06.2018 21:00:00 - - - - - - -
13.06.2018 20:00:00 18,8 10,6 25 14 WNW 1010,1 40
13.06.2018 19:00:00 - - - - - - -
13.06.2018 18:00:00 - - - - - - -
13.06.2018 17:00:00 19,7 10,7 32 18 WNW 1009,1 40
13.06.2018 16:00:00 - - - - - - -
13.06.2018 15:00:00 - - - - - - -
13.06.2018 14:00:00 19,8 12,6 11 6 W 1008,8 23
13.06.2018 13:00:00 - - - - - - -
13.06.2018 12:00:00 - - - - - - -
13.06.2018 11:00:00 16,5 13,0 22 12 W 1009,0 24
13.06.2018 10:00:00 - - - - - - -
13.06.2018 09:00:00 - - - - - - -
13.06.2018 08:00:00 15,6 13,3 29 16 WNW 1008,2 13
13.06.2018 07:00:00 - - - - - - -
13.06.2018 06:00:00 - - - - - - -
13.06.2018 05:00:00 - - - - - - -
13.06.2018 04:00:00 - - - - - - -
13.06.2018 03:00:00 - - - - - - -
13.06.2018 02:00:00 - - - - - - -
13.06.2018 01:00:00 - - - - - - -
13.06.2018 00:00:00 - - - - - - -
12.06.2018 23:00:00 - - - - - - -
12.06.2018 22:00:00 - - - - - - -
12.06.2018 21:00:00 - - - - - - -
12.06.2018 20:00:00 18,4 11,9 18 10 W 1007,7 30
12.06.2018 19:00:00 - - - - - - -
12.06.2018 18:00:00 - - - - - - -
12.06.2018 17:00:00 18,9 12,6 32 18 SW 1008,2 35
12.06.2018 16:00:00 - - - - - - -
12.06.2018 15:00:00 - - - - - - -

tt = Température de l'air
td = dewpoint
ff = Vitesse du vent
dd = Direction du vent
ppp = reduced air pressure
vv = visibility

stations d'obs. à proximité